Caldwell, ID

2:33 AM MST on February 11, 2016 (GMT -0700)
Caldwell Industrial

Weather History for KEUL - August, 2013

Change the Weather History Date:

Saturday, August 17, 2013

  Actual Average (KBOI) Record (KBOI)
Temperature  
Mean Temperature 78 °F 75 °F  
Max Temperature 96 °F 90 °F 101 °F (1964)
Min Temperature 59 °F 60 °F 40 °F (1978)
Degree Days  
Heating Degree Days 0 0  
Month to date heating degree days 0  
Since 1 June heating degree days 72  
Since 1 July heating degree days 8  
Cooling Degree Days 12 10  
Month to date cooling degree days 193  
Year to date cooling degree days 718  
Since 1 June cooling degree days 674  
Growing Degree Days 28 (Base 50)    
Moisture  
Dew Point 48 °F    
Average Humidity 38    
Maximum Humidity 59    
Minimum Humidity 17    
Precipitation  
Precipitation 0.00 in 0.00 in 0.41 in (1916)
Month to date precipitation 0.12  
Year to date precipitation 7.38  
Snow  
Snow 0.00 in 0.00 in 0.00 in (2006)
Month to date snowfall 0.0  
Since 1 July snowfall 0.0  
Snow Depth -    
Sea Level Pressure  
Sea Level Pressure 29.96 in    
Wind  
Wind Speed 4 mph (NW)    
Max Wind Speed 13 mph    
Max Gust Speed 17 mph    
Visibility 10 miles    
Events      
T = Trace of Precipitation, MM = Missing Value Source: NWS Daily Summary

Daily Weather History Graph

Daily Weather History Graph

Search for Another Location

Airport or City:

Trip Planner

Search our weather history database for the weather conditions in past years. The results will help you decide how hot, cold, wet, or windy it might be!

Date:

Astronomy

Aug. 17, 2013 Rise Set
Actual Time 6:53 AM MDT 8:46 PM MDT
Civil Twilight 6:22 AM MDT 9:17 PM MDT
Nautical Twilight 5:45 AM MDT 9:54 PM MDT
Astronomical Twilight 5:04 AM MDT 10:35 PM MDT
Moon 6:08 PM MDT (8/17) 2:58 AM MDT (8/17)
Length of Visible Light 14h 54m
Length of Day
13h 52m
Waxing Gibbous, 85% of the Moon is Illuminated
Aug 17
Waxing Gibbous
Aug 20
Full
Aug 28
Last Quarter
Sep 5
New
Sep 12
First Quarter

Hourly Weather History & Observations

Time (MDT) Temp. Heat Index Dew Point Humidity Pressure Visibility Wind Dir Wind Speed Gust Speed Precip Events Conditions
12:15 AM 66.2 °F - 48.2 °F 52% 29.92 in 10.0 mi East 3.5 mph - N/A   Clear
12:35 AM 64.4 °F - 48.2 °F 56% 29.92 in 10.0 mi Calm Calm - N/A   Clear
12:55 AM 66.2 °F - 48.2 °F 52% 29.93 in 10.0 mi North 9.2 mph 16.1 mph N/A   Clear
1:15 AM 64.4 °F - 48.2 °F 56% 29.93 in 10.0 mi Calm Calm - N/A   Clear
1:55 AM 66.2 °F - 46.4 °F 49% 29.95 in 10.0 mi WNW 8.1 mph - N/A   Clear
2:15 AM 66.2 °F - 46.4 °F 49% 29.95 in 10.0 mi WNW 3.5 mph - N/A   Clear
2:35 AM 66.2 °F - 46.4 °F 49% 29.96 in 10.0 mi WNW 8.1 mph - N/A   Clear
2:55 AM 66.2 °F - 46.4 °F 49% 29.96 in 10.0 mi WNW 8.1 mph - N/A   Clear
3:15 AM 69.8 °F - 46.4 °F 43% 29.96 in 10.0 mi West 10.4 mph - N/A   Clear
3:35 AM 68.0 °F - 46.4 °F 46% 29.97 in 10.0 mi WSW 6.9 mph - N/A   Clear
3:55 AM 66.2 °F - 46.4 °F 49% 29.97 in 10.0 mi West 6.9 mph - N/A   Clear
4:15 AM 66.2 °F - 46.4 °F 49% 29.97 in 10.0 mi West 5.8 mph - N/A   Clear
4:55 AM 66.2 °F - 44.6 °F 46% 29.98 in 10.0 mi West 6.9 mph - N/A   Clear
5:15 AM 64.4 °F - 46.4 °F 52% 29.98 in 10.0 mi WNW 3.5 mph - N/A   Clear
5:35 AM 66.2 °F - 46.4 °F 49% 29.98 in 10.0 mi West 4.6 mph - N/A   Clear
5:55 AM 64.4 °F - 44.6 °F 49% 29.99 in 10.0 mi West 5.8 mph - N/A   Clear
6:15 AM 64.4 °F - 44.6 °F 49% 29.99 in 10.0 mi West 4.6 mph - N/A   Clear
6:35 AM 62.6 °F - 44.6 °F 52% 30.00 in 10.0 mi NW 3.5 mph - N/A   Clear
6:55 AM 60.8 °F - 44.6 °F 55% 30.00 in 10.0 mi NW 4.6 mph - N/A   Clear
7:15 AM 60.8 °F - 44.6 °F 55% 30.01 in 10.0 mi Calm Calm - N/A   Clear
7:35 AM 59.0 °F - 44.6 °F 59% 30.02 in 10.0 mi ENE 4.6 mph - N/A   Clear
7:55 AM 59.0 °F - 44.6 °F 59% 30.02 in 6.0 mi ENE 3.5 mph - N/A   Clear
8:15 AM 60.8 °F - 46.4 °F 59% 30.03 in 10.0 mi Calm Calm - N/A   Clear
8:35 AM 62.6 °F - 48.2 °F 59% 30.04 in 10.0 mi Calm Calm - N/A   Clear
8:55 AM 66.2 °F - 46.4 °F 49% 30.04 in 10.0 mi Calm Calm - N/A   Clear
9:15 AM 68.0 °F - 48.2 °F 49% 30.04 in 10.0 mi North 3.5 mph - N/A   Clear
9:35 AM 69.8 °F - 48.2 °F 46% 30.04 in 10.0 mi North 4.6 mph - N/A   Clear
9:55 AM 69.8 °F - 48.2 °F 46% 30.04 in 10.0 mi ENE 3.5 mph - N/A   Clear
10:15 AM 69.8 °F - 50.0 °F 49% 30.04 in 10.0 mi East 4.6 mph - N/A   Clear
10:35 AM 71.6 °F - 50.0 °F 46% 30.04 in 5.0 mi Calm Calm - N/A   Clear
10:55 AM 73.4 °F - 51.8 °F 47% 30.04 in 10.0 mi NNW 3.5 mph - N/A   Clear
11:15 AM 75.2 °F - 51.8 °F 44% 30.04 in 10.0 mi North 3.5 mph - N/A   Clear
11:35 AM 78.8 °F - 51.8 °F 39% 30.03 in 10.0 mi Calm Calm - N/A   Clear
11:55 AM 82.4 °F - 51.8 °F 35% 30.03 in 10.0 mi WNW 6.9 mph - N/A   Clear
12:15 PM 82.4 °F - 51.8 °F 35% 30.02 in 10.0 mi West 5.8 mph - N/A   Clear
12:55 PM 84.2 °F - 51.8 °F 33% 30.01 in 10.0 mi NNW 5.8 mph - N/A   Clear
1:15 PM 86.0 °F 84.2 °F 53.6 °F 33% 30.00 in 10.0 mi WNW 3.5 mph - N/A   Clear
1:35 PM 87.8 °F 85.7 °F 53.6 °F 31% 29.99 in 10.0 mi WNW 5.8 mph - N/A   Clear
1:55 PM 87.8 °F - 51.8 °F 29% 29.98 in 10.0 mi North 6.9 mph - N/A   Clear
2:15 PM 87.8 °F - 51.8 °F 29% 29.98 in 10.0 mi NW 6.9 mph - N/A   Clear
2:35 PM 89.6 °F - 51.8 °F 27% 29.97 in 10.0 mi Calm Calm - N/A   Clear
2:55 PM 89.6 °F 87.3 °F 53.6 °F 29% 29.97 in 10.0 mi WNW 4.6 mph - N/A   Clear
3:15 PM 89.6 °F - 51.8 °F 27% 29.96 in 10.0 mi NW 3.5 mph - N/A   Clear
3:35 PM 91.4 °F - 51.8 °F 26% 29.94 in 10.0 mi Calm Calm - N/A   Clear
3:55 PM 91.4 °F - 51.8 °F 26% 29.94 in 10.0 mi North 5.8 mph - N/A   Clear
4:15 PM 93.2 °F - 50.0 °F 23% 29.93 in 10.0 mi North 5.8 mph - N/A   Clear
4:35 PM 93.2 °F - 50.0 °F 23% 29.92 in 10.0 mi North 4.6 mph - N/A   Clear
4:55 PM 96.8 °F - 46.4 °F 18% 29.91 in 10.0 mi North 4.6 mph - N/A   Clear
5:15 PM 96.8 °F - 48.2 °F 19% 29.90 in 10.0 mi NNE 6.9 mph - N/A   Clear
5:35 PM 96.8 °F - 46.4 °F 18% 29.90 in 10.0 mi NNE 6.9 mph - N/A   Clear
5:55 PM 96.8 °F - 44.6 °F 17% 29.89 in 10.0 mi North 6.9 mph - N/A   Clear
6:15 PM 95.0 °F - 44.6 °F 18% 29.89 in 10.0 mi North 9.2 mph - N/A   Clear
6:35 PM 95.0 °F - 44.6 °F 18% 29.88 in 10.0 mi North 6.9 mph - N/A   Clear
6:55 PM 93.2 °F - 44.6 °F 19% 29.88 in 10.0 mi NNE 4.6 mph - N/A   Clear
7:15 PM 93.2 °F - 46.4 °F 20% 29.87 in 10.0 mi NNE 3.5 mph - N/A   Clear
7:35 PM 93.2 °F - 46.4 °F 20% 29.87 in 10.0 mi North 3.5 mph - N/A   Clear
7:55 PM 91.4 °F - 50.0 °F 24% 29.87 in 10.0 mi Calm Calm - N/A   Clear
8:15 PM 87.8 °F - 51.8 °F 29% 29.87 in 10.0 mi Calm Calm - N/A   Clear
8:35 PM 87.8 °F - 46.4 °F 24% 29.87 in 10.0 mi Calm Calm - N/A   Clear
8:55 PM 84.2 °F - 46.4 °F 27% 29.87 in 10.0 mi Calm Calm - N/A   Clear
9:15 PM 84.2 °F - 46.4 °F 27% 29.87 in 10.0 mi Calm Calm - N/A   Clear
9:35 PM 82.4 °F - 46.4 °F 28% 29.88 in 10.0 mi SSW 3.5 mph - N/A   Clear
9:55 PM 80.6 °F - 48.2 °F 32% 29.88 in 10.0 mi SSW 3.5 mph - N/A   Clear
10:15 PM 78.8 °F - 48.2 °F 34% 29.88 in 10.0 mi SSW 4.6 mph - N/A   Clear
10:35 PM 78.8 °F - 48.2 °F 34% 29.91 in 10.0 mi NNW 12.7 mph 17.3 mph N/A   Clear
10:55 PM 75.2 °F - 48.2 °F 38% 29.92 in 10.0 mi North 8.1 mph - N/A   Clear
11:15 PM 75.2 °F - 48.2 °F 38% 29.92 in 10.0 mi NW 6.9 mph - N/A   Clear
11:35 PM 73.4 °F - 48.2 °F 41% 29.92 in 10.0 mi WNW 8.1 mph - N/A   Clear
11:55 PM 73.4 °F - 48.2 °F 41% 29.93 in 10.0 mi WNW 5.8 mph - N/A   Clear